VTK503 UHMM-URSS

Flight info

Callsign VTK503
Flight time N/A
Altitude 34000
Route TERKI5E TERKI B927 GONRA/K0813F360 B927 GANPA T155 PLR G932 THN G719 NITEK/K0824F380 G719 TARSA R124 HMN N604 PIGUR T580 SADER W63 INGEN T765 GEMKI/K0672F280 T690 KUPOK/K0798F400 T690 IDLET T790 RORNA T789 DAFOS P135 KR G900 OBABI/K0796F390 G900 ER B145 SUDIR N166 ADNET W79 BINOL BINOL1K
Aircraft B737/M-SDE2E3FGHIRWXY/LB1

Departure

Time 2026-04-14 19:50
Airport Sokol Airport (UHMM)

Arrival

Time N/A
Airport Sochi International Airport (URSS)
Time Latitude Longitude Altitude Speed Heading
2026-04-14 19:22 59.91348 150.72823 576 ft 0 kts 183°
2026-04-14 19:45 59.91331 150.72821 580 ft 4 kts 184°
2026-04-14 19:45 59.91304 150.72786 581 ft 5 kts 237°
2026-04-14 19:45 59.91291 150.72711 576 ft 6 kts 228°
2026-04-14 19:46 59.91247 150.72693 579 ft 7 kts 184°
2026-04-14 19:46 59.91189 150.72688 577 ft 9 kts 181°
2026-04-14 19:46 59.91120 150.72689 578 ft 10 kts 164°
2026-04-14 19:46 59.91083 150.72816 580 ft 12 kts 107°
2026-04-14 19:47 59.91071 150.72990 581 ft 13 kts 93°
2026-04-14 19:47 59.91066 150.73178 576 ft 15 kts 92°
2026-04-14 19:47 59.91061 150.73415 575 ft 19 kts 92°
2026-04-14 19:47 59.91054 150.73676 574 ft 19 kts 93°
2026-04-14 19:48 59.91046 150.73942 575 ft 19 kts 94°
2026-04-14 19:48 59.91038 150.74207 577 ft 19 kts 93°
2026-04-14 19:48 59.91030 150.74463 581 ft 18 kts 93°
2026-04-14 19:48 59.91023 150.74711 584 ft 18 kts 93°
2026-04-14 19:49 59.91048 150.74941 584 ft 17 kts 62°
2026-04-14 19:49 59.91012 150.75006 584 ft 7 kts 266°
2026-04-14 19:49 59.91022 150.74805 584 ft 43 kts 273°
2026-04-14 19:49 59.91052 150.73630 572 ft 127 kts 273°
2026-04-14 19:50 59.91106 150.71397 675 ft 189 kts 273°
2026-04-14 19:50 59.91145 150.68599 1416 ft 211 kts 273°
2026-04-14 19:50 59.91184 150.65664 2697 ft 213 kts 274°
2026-04-14 19:50 59.91260 150.62620 3474 ft 233 kts 277°
2026-04-14 19:51 59.91391 150.59249 3975 ft 252 kts 276°
2026-04-14 19:51 59.91509 150.55670 4415 ft 270 kts 275°
2026-04-14 19:51 59.91622 150.51803 4940 ft 287 kts 275°
2026-04-14 19:51 59.91732 150.47796 5827 ft 292 kts 274°
2026-04-14 19:52 59.92233 150.43880 6658 ft 293 kts 304°
2026-04-14 19:52 59.93536 150.40903 7702 ft 281 kts 327°
2026-04-14 19:52 59.95139 150.38707 8668 ft 280 kts 330°
2026-04-14 19:52 59.96797 150.36624 9567 ft 283 kts 330°
2026-04-14 19:53 59.98474 150.34547 10374 ft 287 kts 331°
2026-04-14 19:53 60.00205 150.32402 10653 ft 311 kts 331°
2026-04-14 19:53 60.02103 150.30031 10963 ft 331 kts 330°
2026-04-14 19:53 60.04078 150.27537 11627 ft 339 kts 330°
2026-04-14 19:54 60.06082 150.24986 12448 ft 343 kts 331°
2026-04-14 19:54 60.10158 150.19763 14012 ft 353 kts 331°
2026-04-14 19:54 60.12237 150.17088 14714 ft 357 kts 331°
2026-04-14 19:55 60.14342 150.14376 15413 ft 362 kts 330°
2026-04-14 19:55 60.16467 150.11633 16131 ft 365 kts 330°
2026-04-14 19:55 60.18614 150.08857 16857 ft 369 kts 330°
2026-04-14 19:55 60.20759 150.06079 17542 ft 374 kts 330°
2026-04-14 19:56 60.22990 150.03186 18230 ft 379 kts 330°
2026-04-14 19:56 60.25213 150.00297 18864 ft 382 kts 330°
2026-04-14 19:56 60.27448 149.97389 19512 ft 385 kts 330°
2026-04-14 19:56 60.29704 149.94448 20155 ft 388 kts 330°
2026-04-14 19:57 60.31983 149.91475 20775 ft 391 kts 330°
2026-04-14 19:57 60.34265 149.88440 21376 ft 396 kts 326°
2026-04-14 19:57 60.36345 149.84828 21942 ft 402 kts 319°
2026-04-14 19:57 60.38376 149.80791 22535 ft 406 kts 317°
2026-04-14 19:58 60.40339 149.76743 23102 ft 410 kts 317°
2026-04-14 19:58 60.42346 149.72595 23618 ft 414 kts 317°
2026-04-14 19:58 60.44408 149.68372 24062 ft 419 kts 317°
2026-04-14 19:58 60.46447 149.64237 24475 ft 423 kts 317°
2026-04-14 19:59 60.48545 149.60012 24896 ft 427 kts 318°
2026-04-14 19:59 60.50669 149.55748 25321 ft 431 kts 318°
2026-04-14 19:59 60.52810 149.51452 25741 ft 435 kts 318°
2026-04-14 19:59 60.54970 149.47113 26152 ft 439 kts 317°
2026-04-14 20:00 60.57149 149.42727 26560 ft 443 kts 317°
2026-04-14 20:00 60.59347 149.38293 26950 ft 447 kts 317°
2026-04-14 20:00 60.61557 149.33825 27340 ft 450 kts 317°
2026-04-14 20:00 60.63786 149.29309 27723 ft 454 kts 317°
2026-04-14 20:01 60.66029 149.24752 28099 ft 457 kts 317°
2026-04-14 20:01 60.68289 149.20152 28457 ft 461 kts 317°
2026-04-14 20:01 60.70568 149.15505 28802 ft 464 kts 317°
2026-04-14 20:01 60.72856 149.10828 29125 ft 468 kts 317°
2026-04-14 20:02 60.75163 149.06105 29475 ft 470 kts 317°
2026-04-14 20:02 60.77477 149.01357 29791 ft 473 kts 317°
2026-04-14 20:02 60.79811 148.96567 30102 ft 476 kts 317°
2026-04-14 20:02 60.82162 148.91747 30346 ft 479 kts 317°
2026-04-14 20:03 60.84514 148.86918 30646 ft 480 kts 317°
2026-04-14 20:03 60.86869 148.82072 31025 ft 478 kts 317°
2026-04-14 20:03 60.89209 148.77243 31440 ft 476 kts 316°
2026-04-14 20:03 60.91543 148.72417 31835 ft 475 kts 316°
2026-04-14 20:04 60.93868 148.67597 32135 ft 475 kts 316°
2026-04-14 20:04 60.96195 148.62763 32440 ft 475 kts 316°
2026-04-14 20:04 60.98514 148.57934 32787 ft 474 kts 316°
2026-04-14 20:04 61.00828 148.53104 33145 ft 473 kts 316°
2026-04-14 20:05 61.03137 148.48275 33495 ft 472 kts 316°
2026-04-14 20:05 61.05433 148.43462 33810 ft 471 kts 315°
2026-04-14 20:05 61.07700 148.38699 34102 ft 470 kts 315°
2026-04-14 20:05 61.09987 148.33884 34361 ft 470 kts 315°
2026-04-14 20:06 61.12275 148.29056 34585 ft 470 kts 315°
2026-04-14 20:06 61.14558 148.24228 34804 ft 470 kts 315°
2026-04-14 20:06 61.16841 148.19389 35017 ft 470 kts 315°
2026-04-14 20:06 61.19121 148.14547 35234 ft 469 kts 315°
2026-04-14 20:07 61.21396 148.09703 35440 ft 469 kts 315°
2026-04-14 20:07 61.23675 148.04841 35621 ft 470 kts 315°
2026-04-14 20:07 61.25950 147.99976 35829 ft 469 kts 314°
2026-04-14 20:07 61.28224 147.95106 36022 ft 469 kts 314°
2026-04-14 20:08 61.30500 147.90221 36056 ft 473 kts 314°
2026-04-14 20:08 61.35064 147.80371 36056 ft 471 kts 314°
2026-04-14 20:09 61.39580 147.70549 36069 ft 467 kts 314°
2026-04-14 20:09 61.44057 147.60765 36072 ft 465 kts 314°
2026-04-14 20:10 61.48504 147.51011 36092 ft 463 kts 314°
2026-04-14 20:10 61.52935 147.41249 36092 ft 462 kts 313°
2026-04-14 20:11 61.57358 147.31463 36101 ft 463 kts 313°
2026-04-14 20:11 61.61784 147.21625 36111 ft 465 kts 313°
2026-04-14 20:12 61.66232 147.11694 36108 ft 467 kts 313°
2026-04-14 20:12 61.69940 147.03382 36117 ft 469 kts 313°
2026-04-14 20:13 61.75175 146.91593 36105 ft 472 kts 313°
2026-04-14 20:13 61.79660 146.81443 36103 ft 473 kts 313°
2026-04-14 20:14 61.83388 146.72970 36112 ft 474 kts 313°
2026-04-14 20:14 61.88591 146.61090 36103 ft 473 kts 313°
2026-04-14 20:15 61.93057 146.50842 36119 ft 472 kts 312°
2026-04-14 20:15 61.96785 146.42250 36123 ft 471 kts 312°
2026-04-14 20:16 62.01931 146.30336 36122 ft 470 kts 312°
2026-04-14 20:16 62.05598 146.21807 36119 ft 469 kts 312°
2026-04-14 20:17 62.09995 146.11535 36119 ft 469 kts 312°
2026-04-14 20:17 62.14384 146.01241 36127 ft 468 kts 312°
2026-04-14 20:18 62.18766 145.90924 36145 ft 468 kts 312°
2026-04-14 20:18 62.23145 145.80595 36119 ft 468 kts 311°
2026-04-14 20:19 62.27512 145.70246 36119 ft 468 kts 311°
2026-04-14 20:19 62.31873 145.59858 36128 ft 468 kts 311°
2026-04-14 20:20 62.36228 145.49434 36125 ft 469 kts 311°
2026-04-14 20:20 62.40591 145.38943 36114 ft 470 kts 311°
2026-04-14 20:21 62.44946 145.28421 36142 ft 470 kts 311°
2026-04-14 20:21 62.49299 145.17859 36124 ft 471 kts 311°
2026-04-14 20:22 62.53642 145.07244 36128 ft 471 kts 310°
2026-04-14 20:22 62.57974 144.96573 36145 ft 472 kts 310°
2026-04-14 20:23 62.62300 144.85867 36157 ft 472 kts 310°
2026-04-14 20:23 62.66592 144.75200 36141 ft 472 kts 310°
2026-04-14 20:24 62.70905 144.64430 36152 ft 472 kts 310°
2026-04-14 20:24 62.75208 144.53631 36156 ft 471 kts 310°
2026-04-14 20:25 62.79494 144.42825 36155 ft 471 kts 309°
2026-04-14 20:25 62.83775 144.31979 36154 ft 470 kts 309°
2026-04-14 20:26 62.88043 144.21113 36148 ft 470 kts 309°
2026-04-14 20:26 62.92298 144.10226 36143 ft 470 kts 309°
2026-04-14 20:27 62.96544 143.99309 36132 ft 470 kts 309°
2026-04-14 20:27 63.00784 143.88355 36131 ft 470 kts 309°
2026-04-14 20:28 63.05011 143.77380 36128 ft 470 kts 309°
2026-04-14 20:28 63.09230 143.66371 36126 ft 470 kts 308°
2026-04-14 20:29 63.13441 143.55332 36129 ft 470 kts 308°
2026-04-14 20:29 63.17643 143.44258 36132 ft 470 kts 308°
2026-04-14 20:30 63.21832 143.33166 36138 ft 470 kts 308°
2026-04-14 20:30 63.26016 143.22032 36131 ft 470 kts 307°
2026-04-14 20:31 63.29694 143.10107 36139 ft 467 kts 299°
2026-04-14 20:31 63.33015 142.97688 36146 ft 467 kts 298°
2026-04-14 20:32 63.36336 142.85223 36129 ft 468 kts 298°
2026-04-14 20:32 63.39692 142.72782 36136 ft 468 kts 299°
2026-04-14 20:33 63.43060 142.60334 36134 ft 468 kts 299°
2026-04-14 20:33 63.46418 142.47862 36138 ft 468 kts 299°
2026-04-14 20:34 63.51413 142.29172 36137 ft 468 kts 298°
2026-04-14 20:34 63.54738 142.16633 36137 ft 468 kts 298°
2026-04-14 20:35 63.58057 142.04051 36126 ft 468 kts 298°
2026-04-14 20:35 63.61364 141.91440 36135 ft 468 kts 298°
2026-04-14 20:36 63.64663 141.78790 36136 ft 469 kts 298°
2026-04-14 20:36 63.67949 141.66115 36133 ft 468 kts 298°
2026-04-14 20:37 63.71220 141.53430 36134 ft 468 kts 298°
2026-04-14 20:37 63.74478 141.40719 36137 ft 467 kts 297°
2026-04-14 20:38 63.77723 141.27985 36140 ft 467 kts 297°
2026-04-14 20:38 63.80955 141.15242 36143 ft 467 kts 297°
2026-04-14 20:39 63.84180 141.02472 36146 ft 467 kts 297°
2026-04-14 20:39 63.87411 140.89695 36146 ft 467 kts 297°
2026-04-14 20:40 63.90629 140.76895 36137 ft 467 kts 297°
2026-04-14 20:40 63.93828 140.64070 36139 ft 467 kts 297°
2026-04-14 20:41 63.96995 140.51179 36133 ft 466 kts 296°
2026-04-14 20:41 64.00143 140.38268 36132 ft 466 kts 296°
2026-04-14 20:42 64.03283 140.25327 36130 ft 466 kts 296°
2026-04-14 20:43 64.07955 140.05943 36129 ft 467 kts 296°
2026-04-14 20:43 64.11092 139.92837 36130 ft 467 kts 296°
2026-04-14 20:44 64.14201 139.79763 36122 ft 467 kts 296°
2026-04-14 20:44 64.17278 139.66752 36119 ft 468 kts 296°
2026-04-14 20:45 64.20362 139.53628 36139 ft 467 kts 295°
2026-04-14 20:45 64.23435 139.40473 36134 ft 467 kts 295°
2026-04-14 20:46 64.26495 139.27291 36128 ft 467 kts 295°
2026-04-14 20:46 64.29546 139.14071 36127 ft 467 kts 295°
2026-04-14 20:47 64.32583 139.00831 36124 ft 467 kts 295°
2026-04-14 20:47 64.35607 138.87564 36127 ft 467 kts 295°
2026-04-14 20:48 64.38622 138.74255 36116 ft 467 kts 295°
2026-04-14 20:48 64.41624 138.60919 36118 ft 467 kts 295°
2026-04-14 20:49 64.44614 138.47557 36105 ft 467 kts 294°
2026-04-14 20:49 64.47586 138.34192 36107 ft 466 kts 294°
2026-04-14 20:50 64.50548 138.20798 36098 ft 466 kts 294°
2026-04-14 20:50 64.53477 138.07492 36111 ft 466 kts 294°
2026-04-14 20:51 64.56417 137.94074 36100 ft 466 kts 294°
2026-04-14 20:51 64.59343 137.80634 36111 ft 465 kts 294°
2026-04-14 20:52 64.62255 137.67168 36105 ft 466 kts 294°
2026-04-14 20:52 64.65156 137.53671 36121 ft 465 kts 294°
2026-04-14 20:53 64.67578 137.42334 36107 ft 465 kts 293°
2026-04-14 20:53 64.70922 137.26586 36129 ft 465 kts 293°
2026-04-14 20:54 64.73785 137.13016 36127 ft 465 kts 293°
2026-04-14 20:54 64.76724 136.99511 36131 ft 466 kts 295°
2026-04-14 20:55 64.79749 136.86053 36119 ft 466 kts 295°
2026-04-14 20:55 64.82757 136.72569 36131 ft 466 kts 294°
2026-04-14 20:56 64.85737 136.59037 36125 ft 466 kts 294°
2026-04-14 20:56 64.88701 136.45481 36156 ft 466 kts 296°
2026-04-14 20:56 64.90441 136.39000 34174 ft 488 kts 309°
2026-04-14 20:57 64.92150 136.34176 23617 ft 289 kts 328°
2026-04-14 20:57 64.94137 136.29922 12797 ft 493 kts 308°
2026-04-14 20:57 64.95721 136.23592 13887 ft 359 kts 293°
2026-04-14 20:57 64.96351 136.19588 18594 ft 187 kts 282°
2026-04-14 20:58 64.96641 136.17003 20245 ft 158 kts 276°
2026-04-14 20:58 64.96922 136.13869 18469 ft 249 kts 278°
2026-04-14 20:58 64.97384 136.08618 15049 ft 393 kts 282°
2026-04-14 20:58 64.98095 136.02415 15422 ft 357 kts 287°
2026-04-14 20:59 64.98883 135.97832 18037 ft 256 kts 295°
2026-04-14 20:59 64.99753 135.94427 18895 ft 246 kts 304°
2026-04-14 20:59 65.00952 135.90910 17796 ft 311 kts 311°
2026-04-14 20:59 65.02687 135.86987 16754 ft 363 kts 320°
2026-04-14 21:00 65.04667 135.83705 17660 ft 337 kts 331°
2026-04-14 21:00 65.06657 135.81599 19469 ft 293 kts 343°
2026-04-14 21:00 65.08584 135.80619 20470 ft 282 kts 356°
2026-04-14 21:00 65.10635 135.80543 20133 ft 315 kts
2026-04-14 21:01 65.12945 135.81487 19483 ft 357 kts 18°
2026-04-14 21:01 65.15280 135.83622 20026 ft 351 kts 31°
2026-04-14 21:01 65.17194 135.86626 21678 ft 309 kts 45°
2026-04-14 21:01 65.18603 135.90163 22910 ft 287 kts 59°
2026-04-14 21:02 65.19639 135.94312 22843 ft 304 kts 71°
2026-04-14 21:02 65.20343 135.99364 22135 ft 339 kts 82°
2026-04-14 21:02 65.20592 136.05075 22259 ft 347 kts 95°
2026-04-14 21:02 65.20440 136.08749 23049 ft 328 kts 108°
2026-04-14 21:03 65.18976 136.14664 24196 ft 309 kts 142°
2026-04-14 21:03 65.17056 136.17099 24128 ft 327 kts 166°
2026-04-14 21:03 65.15514 136.17424 23944 ft 346 kts 185°
2026-04-14 21:03 65.13211 136.15485 24253 ft 363 kts 211°
2026-04-14 21:04 65.10975 136.09344 24942 ft 379 kts 238°
2026-04-14 21:04 65.10220 136.05584 25339 ft 382 kts 243°
2026-04-14 21:04 65.09246 135.99692 25880 ft 386 kts 246°
2026-04-14 21:04 65.08345 135.93649 26404 ft 390 kts 247°
2026-04-14 21:05 65.07468 135.87549 26903 ft 394 kts 248°
2026-04-14 21:05 65.06610 135.81355 27393 ft 398 kts 250°
2026-04-14 21:05 65.05984 135.74919 27860 ft 405 kts 260°
2026-04-14 21:05 65.05991 135.68183 28313 ft 414 kts 276°
2026-04-14 21:06 65.06685 135.61523 28806 ft 420 kts 287°
2026-04-14 21:06 65.07827 135.55116 29268 ft 424 kts 294°
2026-04-14 21:06 65.09166 135.48850 29690 ft 428 kts 295°
2026-04-14 21:06 65.10533 135.42556 30089 ft 431 kts 295°
2026-04-14 21:07 65.11887 135.36177 30424 ft 434 kts 294°
2026-04-14 21:07 65.13228 135.29739 30708 ft 437 kts 294°
2026-04-14 21:07 65.14571 135.23228 31015 ft 440 kts 294°
2026-04-14 21:07 65.15920 135.16652 31322 ft 443 kts 294°
2026-04-14 21:08 65.17274 135.10039 31607 ft 446 kts 294°
2026-04-14 21:08 65.18633 135.03385 31893 ft 449 kts 293°
2026-04-14 21:08 65.19997 134.96694 32162 ft 451 kts 293°
2026-04-14 21:08 65.21369 134.89943 32426 ft 454 kts 293°
2026-04-14 21:09 65.22728 134.83241 32679 ft 456 kts 293°
2026-04-14 21:09 65.24125 134.76334 32940 ft 458 kts 293°
2026-04-14 21:09 65.25511 134.69453 33171 ft 461 kts 292°
2026-04-14 21:09 65.26894 134.62546 33387 ft 463 kts 292°
2026-04-14 21:10 65.28278 134.55591 33690 ft 463 kts 292°
2026-04-14 21:10 65.29658 134.48629 34049 ft 463 kts 292°
2026-04-14 21:10 65.31030 134.41684 34341 ft 462 kts 292°
2026-04-14 21:10 65.32400 134.34724 34574 ft 463 kts 292°
2026-04-14 21:11 65.33751 134.27839 34792 ft 463 kts 292°
2026-04-14 21:11 65.35117 134.20857 35037 ft 463 kts 292°
2026-04-14 21:11 65.36481 134.13866 35267 ft 463 kts 291°
2026-04-14 21:11 65.37841 134.06871 35485 ft 463 kts 291°
2026-04-14 21:12 65.39200 133.99855 35703 ft 464 kts 291°
2026-04-14 21:12 65.40554 133.92841 35932 ft 463 kts 291°
2026-04-14 21:12 65.41907 133.85810 36144 ft 464 kts 291°
2026-04-14 21:13 65.44616 133.71648 36184 ft 467 kts 291°
2026-04-14 21:13 65.47304 133.57512 36181 ft 463 kts 291°
2026-04-14 21:14 65.51277 133.36432 36178 ft 459 kts 290°
2026-04-14 21:14 65.53889 133.22450 36178 ft 457 kts 290°
2026-04-14 21:15 65.56483 133.08462 36184 ft 456 kts 290°
2026-04-14 21:15 65.59058 132.94483 36180 ft 455 kts 290°
2026-04-14 21:16 65.61623 132.80458 36186 ft 456 kts 290°
2026-04-14 21:16 65.64181 132.66373 36189 ft 458 kts 290°
2026-04-14 21:17 65.66739 132.52190 36200 ft 461 kts 290°
2026-04-14 21:17 65.69299 132.37894 36195 ft 463 kts 289°
2026-04-14 21:18 65.71855 132.23525 36196 ft 465 kts 289°
2026-04-14 21:18 65.74409 132.09070 36199 ft 466 kts 289°
2026-04-14 21:19 65.76951 131.94563 36189 ft 466 kts 289°
2026-04-14 21:19 65.79481 131.80029 36193 ft 465 kts 289°
2026-04-14 21:20 65.81973 131.65607 36199 ft 464 kts 289°
2026-04-14 21:20 65.84462 131.51099 36206 ft 463 kts 288°
2026-04-14 21:21 65.86937 131.36558 36206 ft 462 kts 288°
2026-04-14 21:21 65.89390 131.22046 36208 ft 461 kts 288°
2026-04-14 21:22 65.91822 131.07547 36211 ft 460 kts 288°
2026-04-14 21:22 65.94238 130.93031 36233 ft 460 kts 288°
2026-04-14 21:23 65.96638 130.78506 36235 ft 459 kts 287°
2026-04-14 21:23 65.99022 130.63965 36248 ft 460 kts 287°
2026-04-14 21:24 66.01396 130.49377 36244 ft 460 kts 287°
2026-04-14 21:24 66.03756 130.34755 36256 ft 460 kts 287°
2026-04-14 21:25 66.06107 130.20081 36255 ft 461 kts 287°
2026-04-14 21:25 66.08462 130.05260 36351 ft 468 kts 287°
2026-04-14 21:26 66.09646 129.97765 36504 ft 469 kts 287°
2026-04-14 21:26 66.10824 129.90284 36739 ft 468 kts 287°
2026-04-14 21:26 66.11997 129.82811 36982 ft 467 kts 287°
2026-04-14 21:26 66.13165 129.75335 37173 ft 467 kts 286°
2026-04-14 21:27 66.14328 129.67855 37332 ft 467 kts 286°
2026-04-14 21:27 66.15489 129.60362 37536 ft 467 kts 286°
2026-04-14 21:27 66.16648 129.52860 37744 ft 466 kts 286°
2026-04-14 21:27 66.17799 129.45375 37941 ft 466 kts 286°
2026-04-14 21:28 66.18950 129.37872 38114 ft 466 kts 286°
2026-04-14 21:28 66.20098 129.30387 38247 ft 466 kts 286°
2026-04-14 21:28 66.22398 129.15329 38238 ft 466 kts 286°
2026-04-14 21:29 66.24666 129.00317 38228 ft 463 kts 285°
2026-04-14 21:29 66.26543 128.85144 38245 ft 458 kts 281°
2026-04-14 21:30 66.28221 128.69905 38241 ft 456 kts 281°
2026-04-14 21:30 66.29889 128.54696 38240 ft 456 kts 281°
2026-04-14 21:31 66.31573 128.39478 38234 ft 457 kts 281°
2026-04-14 21:31 66.33261 128.24213 38230 ft 458 kts 281°
2026-04-14 21:32 66.34939 128.08892 38209 ft 459 kts 281°
2026-04-14 21:32 66.36596 127.93609 38209 ft 461 kts 281°
2026-04-14 21:33 66.38258 127.78111 38200 ft 464 kts 280°
2026-04-14 21:33 66.39905 127.62590 38182 ft 465 kts 280°
2026-04-14 21:34 66.41549 127.46941 38181 ft 465 kts 280°
2026-04-14 21:34 66.43171 127.31324 38173 ft 464 kts 280°
2026-04-14 21:35 66.44777 127.15679 38172 ft 463 kts 279°
2026-04-14 21:35 66.46362 127.00076 38173 ft 462 kts 279°
2026-04-14 21:36 66.47928 126.84490 38168 ft 462 kts 279°
2026-04-14 21:36 66.49476 126.68907 38152 ft 461 kts 279°
2026-04-14 21:37 66.51004 126.53345 38153 ft 460 kts 279°
2026-04-14 21:37 66.52513 126.37792 38149 ft 458 kts 279°
2026-04-14 21:38 66.54005 126.22256 38144 ft 458 kts 279°
2026-04-14 21:38 66.55482 126.06686 38126 ft 459 kts 279°
2026-04-14 21:39 66.56944 125.91093 38121 ft 458 kts 278°
2026-04-14 21:39 66.58390 125.75498 38124 ft 458 kts 278°
2026-04-14 21:40 66.59818 125.59903 38110 ft 458 kts 278°
2026-04-14 21:40 66.61233 125.44259 38110 ft 458 kts 278°
2026-04-14 21:41 66.62630 125.28625 38108 ft 459 kts 278°
2026-04-14 21:41 66.64008 125.13023 38104 ft 459 kts 278°
2026-04-14 21:42 66.65387 124.97206 38101 ft 459 kts 278°
2026-04-14 21:42 66.66733 124.81570 38104 ft 460 kts 278°
2026-04-14 21:43 66.68083 124.65690 38107 ft 460 kts 277°
2026-04-14 21:43 66.69401 124.49993 38099 ft 460 kts 277°
2026-04-14 21:44 66.70721 124.34058 38110 ft 460 kts 277°
2026-04-14 21:44 66.72006 124.18329 38107 ft 460 kts 277°
2026-04-14 21:45 66.73285 124.02478 38099 ft 460 kts 277°
2026-04-14 21:45 66.74546 123.86627 38105 ft 460 kts 277°
2026-04-14 21:46 66.75792 123.70757 38110 ft 459 kts 277°
2026-04-14 21:46 66.77021 123.54903 38113 ft 459 kts 277°
2026-04-14 21:47 66.78226 123.39019 38117 ft 458 kts 275°
2026-04-14 21:47 66.78574 123.23091 38130 ft 451 kts 266°
2026-04-14 21:48 66.78539 123.07193 38127 ft 451 kts 265°
2026-04-14 21:48 66.78498 122.91289 38131 ft 451 kts 265°
2026-04-14 21:49 66.78479 122.75376 38126 ft 451 kts 265°
2026-04-14 21:49 66.78462 122.59475 38137 ft 451 kts 265°
2026-04-14 21:50 66.78432 122.43558 38137 ft 451 kts 265°
2026-04-14 21:50 66.78385 122.27666 38141 ft 451 kts 265°
2026-04-14 21:51 66.78334 122.14446 38147 ft 452 kts 265°
2026-04-14 21:51 66.78242 121.95837 38150 ft 452 kts 265°
2026-04-14 21:52 66.78163 121.82611 38154 ft 452 kts 265°
2026-04-14 21:52 66.78053 121.66683 38154 ft 452 kts 265°
2026-04-14 21:53 66.77928 121.50757 38161 ft 452 kts 265°
2026-04-14 21:53 66.77786 121.34820 38158 ft 453 kts 265°
2026-04-14 21:54 66.77629 121.18870 38164 ft 453 kts 264°
2026-04-14 21:54 66.77455 121.02926 38172 ft 453 kts 264°
2026-04-14 21:55 66.77265 120.86987 38169 ft 453 kts 264°
2026-04-14 21:55 66.77061 120.71164 38177 ft 453 kts 264°
2026-04-14 21:56 66.76839 120.55229 38177 ft 452 kts 264°
2026-04-14 21:56 66.76601 120.39316 38176 ft 452 kts 264°
2026-04-14 21:57 66.76348 120.23398 38190 ft 452 kts 264°
2026-04-14 21:57 66.76079 120.07523 38181 ft 452 kts 264°
2026-04-14 21:58 66.75794 119.91649 38188 ft 451 kts 264°
2026-04-14 21:58 66.75493 119.75779 38187 ft 451 kts 264°
2026-04-14 21:59 66.75180 119.59942 38195 ft 450 kts 263°
2026-04-14 21:59 66.74822 119.44118 38189 ft 450 kts 262°
2026-04-14 22:00 66.74325 119.28337 38193 ft 450 kts 262°
2026-04-14 22:00 66.73793 119.12581 38188 ft 450 kts 262°
2026-04-14 22:01 66.73260 118.96837 38189 ft 449 kts 262°
2026-04-14 22:01 66.72719 118.81077 38184 ft 449 kts 262°
2026-04-14 22:02 66.72167 118.65336 38192 ft 450 kts 261°
2026-04-14 22:02 66.71599 118.49602 38190 ft 450 kts 261°
2026-04-14 22:03 66.71013 118.33853 38194 ft 450 kts 261°
2026-04-14 22:03 66.70417 118.18224 38189 ft 450 kts 261°
2026-04-14 22:04 66.69796 118.02390 38187 ft 450 kts 261°
2026-04-14 22:04 66.69167 117.86752 38187 ft 450 kts 261°
2026-04-14 22:05 66.68520 117.71048 38186 ft 450 kts 261°
2026-04-14 22:05 66.67856 117.55331 38187 ft 450 kts 261°
2026-04-14 22:06 66.67177 117.39646 38184 ft 450 kts 260°
2026-04-14 22:06 66.66483 117.23965 38188 ft 450 kts 260°
2026-04-14 22:07 66.65773 117.08295 38184 ft 450 kts 260°
2026-04-14 22:07 66.65047 116.92626 38189 ft 450 kts 260°
2026-04-14 22:08 66.64307 116.76984 38178 ft 449 kts 260°
2026-04-14 22:08 66.63550 116.61345 38178 ft 449 kts 260°
2026-04-14 22:09 66.62780 116.45748 38180 ft 449 kts 259°
2026-04-14 22:09 66.61994 116.30154 38186 ft 449 kts 259°
2026-04-14 22:10 66.61190 116.14542 38195 ft 451 kts 261°
2026-04-14 22:10 66.60371 115.98921 38182 ft 450 kts 261°
2026-04-14 22:11 66.59536 115.83307 38170 ft 450 kts 260°
2026-04-14 22:11 66.58688 115.67749 38172 ft 449 kts 260°
2026-04-14 22:12 66.57826 115.52219 38170 ft 448 kts 260°
2026-04-14 22:12 66.56949 115.36711 38172 ft 448 kts 260°
2026-04-14 22:13 66.56059 115.21236 38121 ft 447 kts 259°
2026-04-14 22:13 66.55158 115.05823 38155 ft 446 kts 259°
2026-04-14 22:14 66.54356 114.90383 38166 ft 447 kts 262°
2026-04-14 22:14 66.53780 114.74921 38150 ft 448 kts 262°
2026-04-14 22:15 66.53209 114.59348 38138 ft 449 kts 262°
2026-04-14 22:15 66.52594 114.43737 38116 ft 450 kts 262°
2026-04-14 22:16 66.51948 114.28128 38106 ft 451 kts 262°
2026-04-14 22:16 66.51281 114.12491 38088 ft 451 kts 262°
2026-04-14 22:17 66.50599 113.96854 38079 ft 451 kts 262°
2026-04-14 22:17 66.49901 113.81220 38059 ft 452 kts 262°
2026-04-14 22:18 66.49188 113.65593 38050 ft 451 kts 261°
2026-04-14 22:18 66.48459 113.49986 38035 ft 451 kts 261°
2026-04-14 22:19 66.47339 113.26613 38020 ft 451 kts 261°
2026-04-14 22:20 66.46573 113.11062 37996 ft 450 kts 261°
2026-04-14 22:20 66.45793 112.95526 37988 ft 450 kts 261°
2026-04-14 22:21 66.44998 112.80017 37969 ft 449 kts 261°
2026-04-14 22:21 66.44188 112.64536 37956 ft 449 kts 261°
2026-04-14 22:22 66.43364 112.49065 37940 ft 449 kts 261°
2026-04-14 22:22 66.42524 112.33603 37939 ft 449 kts 261°
2026-04-14 22:23 66.41672 112.18152 37943 ft 449 kts 261°
2026-04-14 22:23 66.40899 112.02692 37927 ft 450 kts 266°
2026-04-14 22:24 66.41324 111.87094 37945 ft 451 kts 275°
2026-04-14 22:24 66.42038 111.71517 37945 ft 451 kts 275°
2026-04-14 22:25 66.42708 111.56019 37934 ft 452 kts 275°
2026-04-14 22:25 66.43331 111.40397 37940 ft 452 kts 274°
2026-04-14 22:26 66.43926 111.24758 37933 ft 453 kts 274°
2026-04-14 22:26 66.44506 111.09082 37948 ft 453 kts 274°
2026-04-14 22:27 66.45071 110.93407 37959 ft 453 kts 274°
2026-04-14 22:27 66.45622 110.77708 37972 ft 453 kts 274°
2026-04-14 22:28 66.46156 110.62027 37985 ft 453 kts 274°
2026-04-14 22:28 66.46675 110.46328 37992 ft 453 kts 274°
2026-04-14 22:29 66.47178 110.30619 38007 ft 453 kts 274°
2026-04-14 22:29 66.47666 110.14913 38018 ft 452 kts 274°
2026-04-14 22:30 66.48140 109.99224 38029 ft 452 kts 273°
2026-04-14 22:30 66.48593 109.83519 38040 ft 452 kts 273°
2026-04-14 22:31 66.49027 109.67820 38044 ft 452 kts 273°
2026-04-14 22:31 66.49446 109.52115 38055 ft 452 kts 273°
2026-04-14 22:32 66.49851 109.36414 38064 ft 452 kts 273°
2026-04-14 22:32 66.50241 109.20700 38072 ft 452 kts 272°
2026-04-14 22:33 66.50614 109.04988 38074 ft 452 kts 272°
2026-04-14 22:33 66.50970 108.89366 38075 ft 452 kts 272°
2026-04-14 22:34 66.51312 108.73650 38072 ft 452 kts 272°
2026-04-14 22:34 66.51639 108.57914 38070 ft 452 kts 272°
2026-04-14 22:35 66.51950 108.42186 38063 ft 452 kts 272°
2026-04-14 22:35 66.52244 108.26462 38063 ft 452 kts 272°
2026-04-14 22:36 66.52524 108.10717 38055 ft 452 kts 272°
2026-04-14 22:36 66.52787 107.94967 38050 ft 452 kts 272°
2026-04-14 22:37 66.53035 107.79236 38034 ft 451 kts 271°
2026-04-14 22:37 66.53266 107.63493 38042 ft 451 kts 271°
2026-04-14 22:38 66.53482 107.47757 38052 ft 451 kts 271°
2026-04-14 22:38 66.53683 107.32013 38047 ft 452 kts 271°
2026-04-14 22:39 66.53868 107.16246 38050 ft 452 kts 271°
2026-04-14 22:39 66.54012 107.03161 38049 ft 452 kts 271°
2026-04-14 22:40 66.54176 106.87394 38049 ft 452 kts 271°
2026-04-14 22:40 66.54364 106.71619 38047 ft 452 kts 271°
2026-04-14 22:41 66.54547 106.55832 38050 ft 452 kts 271°
2026-04-14 22:41 66.54710 106.40050 38040 ft 452 kts 271°
2026-04-14 22:42 66.54855 106.24268 38045 ft 452 kts 271°
2026-04-14 22:42 66.54982 106.08496 38047 ft 452 kts 270°
2026-04-14 22:43 66.55094 105.92741 38043 ft 452 kts 270°
2026-04-14 22:43 66.55190 105.76972 38043 ft 451 kts 270°
2026-04-14 22:44 66.55269 105.61239 38044 ft 451 kts 270°
2026-04-14 22:44 66.55334 105.45490 38048 ft 451 kts 270°
2026-04-14 22:45 66.55382 105.29748 38041 ft 451 kts 270°
2026-04-14 22:45 66.55415 105.14029 38043 ft 450 kts 270°
2026-04-14 22:46 66.55432 104.98309 38042 ft 450 kts 270°
2026-04-14 22:46 66.55433 104.82587 38039 ft 450 kts 270°
2026-04-14 22:47 66.55418 104.66871 38044 ft 450 kts 269°
2026-04-14 22:47 66.55388 104.51163 38047 ft 450 kts 269°
2026-04-14 22:48 66.55342 104.35457 38047 ft 450 kts 269°
2026-04-14 22:48 66.55280 104.19748 38054 ft 450 kts 269°
2026-04-14 22:49 66.55203 104.04037 38058 ft 450 kts 269°
2026-04-14 22:49 66.55111 103.88428 38064 ft 450 kts 269°
2026-04-14 22:50 66.55005 103.72732 38070 ft 450 kts 269°
2026-04-14 22:50 66.54884 103.57023 38072 ft 450 kts 269°
2026-04-14 22:51 66.54811 103.41327 38075 ft 450 kts 269°
2026-04-14 22:51 66.54753 103.25617 38079 ft 450 kts 269°
2026-04-14 22:52 66.54677 103.09896 38085 ft 450 kts 269°
2026-04-14 22:52 66.54579 102.94181 38084 ft 450 kts 269°
2026-04-14 22:53 66.54463 102.78485 38073 ft 450 kts 269°
2026-04-14 22:53 66.54330 102.62763 38074 ft 450 kts 269°
2026-04-14 22:54 66.54182 102.47078 38070 ft 450 kts 268°
2026-04-14 22:54 66.54018 102.31361 38064 ft 450 kts 268°
2026-04-14 22:55 66.53838 102.15661 38062 ft 450 kts 268°
2026-04-14 22:55 66.53643 101.99968 38054 ft 450 kts 268°
2026-04-14 22:56 66.53432 101.84274 38056 ft 450 kts 268°
2026-04-14 22:56 66.53206 101.68581 38057 ft 450 kts 268°
2026-04-14 22:57 66.52963 101.52903 38058 ft 450 kts 268°
2026-04-14 22:57 66.52706 101.37224 38058 ft 450 kts 268°
2026-04-14 22:58 66.52432 101.21539 38065 ft 450 kts 267°
2026-04-14 22:58 66.52143 101.05878 38067 ft 450 kts 267°
2026-04-14 22:59 66.51840 100.90312 38069 ft 450 kts 267°
2026-04-14 22:59 66.51519 100.74644 38073 ft 450 kts 267°
2026-04-14 23:00 66.51184 100.59000 38071 ft 450 kts 267°
2026-04-14 23:00 66.50832 100.43349 38075 ft 450 kts 267°
2026-04-14 23:01 66.50465 100.27697 38072 ft 450 kts 267°
2026-04-14 23:01 66.50082 100.12068 38074 ft 449 kts 266°
2026-04-14 23:02 66.49684 99.96437 38072 ft 450 kts 266°
2026-04-14 23:02 66.49270 99.80814 38079 ft 449 kts 266°
2026-04-14 23:03 66.48841 99.65193 38072 ft 450 kts 266°
2026-04-14 23:03 66.48396 99.49594 38077 ft 449 kts 266°
2026-04-14 23:04 66.47935 99.33982 38077 ft 449 kts 266°
2026-04-14 23:04 66.47460 99.18394 38076 ft 449 kts 266°
2026-04-14 23:05 66.46969 99.02825 38078 ft 449 kts 266°
2026-04-14 23:05 66.46462 98.87240 38085 ft 449 kts 266°
2026-04-14 23:06 66.45940 98.71665 38111 ft 449 kts 265°
2026-04-14 23:06 66.45402 98.56094 38114 ft 449 kts 265°
2026-04-14 23:07 66.44848 98.40530 38117 ft 449 kts 265°
2026-04-14 23:07 66.44280 98.24990 38117 ft 449 kts 265°
2026-04-14 23:08 66.43696 98.09440 38111 ft 449 kts 265°
2026-04-14 23:08 66.43096 97.93904 38117 ft 449 kts 265°
2026-04-14 23:09 66.42481 97.78383 38112 ft 449 kts 265°
2026-04-14 23:09 66.41852 97.62884 38104 ft 449 kts 265°
2026-04-14 23:10 66.41206 97.47375 38114 ft 449 kts 265°
2026-04-14 23:10 66.40546 97.31878 38112 ft 449 kts 265°
2026-04-14 23:11 66.39869 97.16388 38108 ft 449 kts 264°
2026-04-14 23:11 66.39178 97.00905 38111 ft 449 kts 264°
2026-04-14 23:12 66.38470 96.85412 38115 ft 449 kts 264°
2026-04-14 23:12 66.37748 96.69951 38111 ft 449 kts 264°
2026-04-14 23:13 66.37015 96.54590 38118 ft 449 kts 264°
2026-04-14 23:13 66.36261 96.39121 38113 ft 450 kts 264°
2026-04-14 23:14 66.35491 96.23656 38105 ft 450 kts 264°
2026-04-14 23:14 66.34707 96.08219 38106 ft 450 kts 264°
2026-04-14 23:15 66.33907 95.92769 38104 ft 450 kts 264°
2026-04-14 23:15 66.33093 95.77345 38114 ft 450 kts 264°
2026-04-14 23:16 66.32261 95.61897 38101 ft 450 kts 263°
2026-04-14 23:16 66.31415 95.46473 38098 ft 450 kts 263°
2026-04-14 23:17 66.30555 95.31076 38107 ft 450 kts 263°
2026-04-14 23:17 66.29681 95.15666 38094 ft 450 kts 263°
2026-04-14 23:18 66.28512 94.92653 38098 ft 449 kts 265°
2026-04-14 23:18 66.27829 94.77214 38099 ft 449 kts 265°
2026-04-14 23:19 66.27121 94.61785 38095 ft 450 kts 265°
2026-04-14 23:19 66.26381 94.46363 38085 ft 450 kts 264°
2026-04-14 23:20 66.25619 94.30941 38090 ft 450 kts 264°
2026-04-14 23:20 66.24841 94.15529 38089 ft 450 kts 264°
2026-04-14 23:21 66.24047 94.00111 38082 ft 451 kts 264°
2026-04-14 23:21 66.23238 93.84705 38087 ft 451 kts 264°
2026-04-14 23:22 66.22413 93.69285 38079 ft 452 kts 264°
2026-04-14 23:22 66.21571 93.53848 38077 ft 452 kts 264°
2026-04-14 23:23 66.20714 93.38425 38078 ft 452 kts 264°
2026-04-14 23:23 66.19843 93.23024 38071 ft 452 kts 264°
2026-04-14 23:24 66.18956 93.07640 38076 ft 452 kts 263°
2026-04-14 23:24 66.18059 92.92360 38075 ft 451 kts 263°
2026-04-14 23:25 66.17144 92.77016 38071 ft 451 kts 263°
2026-04-14 23:25 66.16211 92.61668 38073 ft 451 kts 263°
2026-04-14 23:26 66.15264 92.46324 38071 ft 451 kts 263°
2026-04-14 23:26 66.14302 92.31002 38065 ft 452 kts 263°
2026-04-14 23:27 66.13323 92.15677 38066 ft 452 kts 263°
2026-04-14 23:27 66.12497 92.02929 38064 ft 452 kts 263°
2026-04-14 23:28 66.11319 91.85034 38066 ft 452 kts 263°
2026-04-14 23:28 66.10468 91.72298 38062 ft 452 kts 262°
2026-04-14 23:29 66.09430 91.57000 38060 ft 453 kts 262°
2026-04-14 23:29 66.08376 91.41694 38059 ft 453 kts 262°
2026-04-14 23:30 66.07307 91.26407 38062 ft 453 kts 262°
2026-04-14 23:30 66.06222 91.11126 38061 ft 453 kts 262°
2026-04-14 23:31 66.05123 90.95858 38060 ft 453 kts 262°
2026-04-14 23:31 66.04009 90.80612 38060 ft 453 kts 262°
2026-04-14 23:32 66.02879 90.65365 38057 ft 453 kts 262°
2026-04-14 23:32 66.01734 90.50142 38056 ft 453 kts 262°
2026-04-14 23:33 66.00574 90.34928 38055 ft 453 kts 262°
2026-04-14 23:33 65.99400 90.19740 38052 ft 453 kts 261°
2026-04-14 23:34 65.98212 90.04573 38058 ft 452 kts 261°
2026-04-14 23:34 65.97009 89.89419 38047 ft 452 kts 261°
2026-04-14 23:35 65.95791 89.74286 38059 ft 452 kts 261°
2026-04-14 23:35 65.94559 89.59173 38045 ft 452 kts 261°
2026-04-14 23:36 65.93312 89.44060 38049 ft 452 kts 261°
2026-04-14 23:36 65.92049 89.28963 38057 ft 453 kts 261°
2026-04-14 23:37 65.90769 89.13857 38054 ft 453 kts 261°
2026-04-14 23:37 65.89475 88.98760 38044 ft 453 kts 261°
2026-04-14 23:38 65.88166 88.83692 38027 ft 453 kts 261°
2026-04-14 23:38 65.86853 88.68750 38035 ft 453 kts 261°
2026-04-14 23:39 65.85513 88.53696 38037 ft 453 kts 260°
2026-04-14 23:39 65.84162 88.38685 38038 ft 453 kts 260°
2026-04-14 23:40 65.82796 88.23682 38031 ft 453 kts 260°
2026-04-14 23:40 65.81416 88.08693 38030 ft 453 kts 260°
2026-04-14 23:41 65.80024 87.93699 38030 ft 453 kts 261°
2026-04-14 23:41 65.79016 87.78619 38039 ft 450 kts 265°
2026-04-14 23:42 65.78161 87.63516 38026 ft 450 kts 265°
2026-04-14 23:42 65.77265 87.48405 38033 ft 451 kts 264°
2026-04-14 23:43 65.76327 87.33332 38031 ft 451 kts 264°
2026-04-14 23:43 65.75367 87.18257 38031 ft 451 kts 264°
2026-04-14 23:44 65.74394 87.03202 38035 ft 451 kts 264°
2026-04-14 23:44 65.73409 86.88150 38043 ft 451 kts 264°
2026-04-14 23:45 65.72417 86.73096 38033 ft 451 kts 264°
2026-04-14 23:45 65.71426 86.58055 38038 ft 451 kts 264°
2026-04-14 23:46 65.70423 86.43038 38043 ft 451 kts 264°
2026-04-14 23:46 65.69405 86.28030 38046 ft 450 kts 264°
2026-04-14 23:47 65.68371 86.13036 38048 ft 451 kts 264°
2026-04-14 23:47 65.67321 85.98041 38047 ft 451 kts 264°
2026-04-14 23:48 65.66256 85.83064 38043 ft 451 kts 264°
2026-04-14 23:48 65.65178 85.68105 38042 ft 451 kts 263°
2026-04-14 23:49 65.64084 85.53152 38048 ft 451 kts 263°
2026-04-14 23:49 65.62983 85.38313 38046 ft 451 kts 263°
2026-04-14 23:50 65.61860 85.23388 38053 ft 451 kts 263°
2026-04-14 23:50 65.60724 85.08482 38053 ft 451 kts 263°
2026-04-14 23:51 65.59571 84.93578 38052 ft 450 kts 263°
2026-04-14 23:51 65.58407 84.78714 38058 ft 450 kts 263°
2026-04-14 23:52 65.57227 84.63860 38057 ft 450 kts 263°
2026-04-14 23:52 65.56033 84.49014 38058 ft 450 kts 263°
2026-04-14 23:53 65.54825 84.34189 38059 ft 450 kts 263°
2026-04-14 23:53 65.53602 84.19376 38063 ft 450 kts 263°
2026-04-14 23:54 65.52365 84.04580 38071 ft 450 kts 262°
2026-04-14 23:54 65.51114 83.89789 38062 ft 450 kts 262°
2026-04-14 23:55 65.49847 83.75000 38068 ft 450 kts 262°
2026-04-14 23:55 65.48570 83.60246 38070 ft 451 kts 262°
2026-04-14 23:56 65.47301 83.45471 38076 ft 450 kts 263°
2026-04-14 23:56 65.46123 83.30677 38075 ft 450 kts 263°
2026-04-14 23:57 65.44947 83.15891 38070 ft 450 kts 263°
2026-04-14 23:57 65.43745 83.01110 38077 ft 451 kts 263°
2026-04-14 23:58 65.42528 82.86436 38076 ft 451 kts 263°
2026-04-14 23:58 65.41288 82.71681 38079 ft 451 kts 263°
2026-04-14 23:59 65.40033 82.56929 38079 ft 451 kts 263°
2026-04-14 23:59 65.38765 82.42191 38088 ft 451 kts 263°
2026-04-15 00:00 65.37481 82.27458 38089 ft 451 kts 262°
2026-04-15 00:00 65.36186 82.12742 38091 ft 451 kts 262°
2026-04-15 00:01 65.34877 81.98047 38089 ft 451 kts 262°
2026-04-15 00:01 65.33574 81.83350 38098 ft 451 kts 263°
2026-04-15 00:02 65.32265 81.68675 38105 ft 451 kts 262°
2026-04-15 00:02 65.30941 81.54019 38094 ft 451 kts 262°
2026-04-15 00:03 65.29601 81.39366 38108 ft 451 kts 262°
2026-04-15 00:03 65.28248 81.24743 38107 ft 451 kts 262°
2026-04-15 00:04 65.26879 81.10120 38107 ft 451 kts 262°
2026-04-15 00:04 65.25496 80.95519 38114 ft 451 kts 262°
2026-04-15 00:05 65.24100 80.80936 38114 ft 451 kts 262°
2026-04-15 00:05 65.22687 80.66350 38117 ft 451 kts 262°
2026-04-15 00:06 65.21262 80.51785 38119 ft 451 kts 262°
2026-04-15 00:06 65.19821 80.37230 38124 ft 451 kts 262°
2026-04-15 00:07 65.18376 80.22786 38124 ft 451 kts 262°
2026-04-15 00:07 65.16908 80.08266 38127 ft 451 kts 262°
2026-04-15 00:08 65.15425 79.93754 38131 ft 452 kts 262°
2026-04-15 00:08 65.13925 79.79231 38131 ft 452 kts 261°
2026-04-15 00:09 65.12411 79.64723 38136 ft 453 kts 261°
2026-04-15 00:09 65.10881 79.50214 38134 ft 453 kts 261°
2026-04-15 00:10 65.09338 79.35728 38140 ft 453 kts 261°
2026-04-15 00:10 65.07781 79.21257 38141 ft 453 kts 261°
2026-04-15 00:11 65.06209 79.06803 38148 ft 453 kts 261°
2026-04-15 00:11 65.04624 78.92360 38149 ft 453 kts 261°
2026-04-15 00:12 65.03026 78.77934 38150 ft 453 kts 261°
2026-04-15 00:12 65.01416 78.63536 38153 ft 453 kts 261°
2026-04-15 00:13 64.99807 78.49155 38161 ft 452 kts 261°
2026-04-15 00:13 64.98198 78.34791 38155 ft 452 kts 261°
2026-04-15 00:14 64.96575 78.20445 38163 ft 452 kts 261°
2026-04-15 00:14 64.95215 78.08548 38160 ft 452 kts 261°
2026-04-15 00:15 64.93299 77.91911 38165 ft 452 kts 261°
2026-04-15 00:15 64.91135 77.77927 38179 ft 462 kts 246°
2026-04-15 00:16 64.87272 77.65656 38196 ft 471 kts 233°
2026-04-15 00:16 64.83602 77.56014 38182 ft 472 kts 233°
2026-04-15 00:17 64.79240 77.44494 38180 ft 472 kts 234°
2026-04-15 00:17 64.74918 77.32910 38183 ft 472 kts 234°
2026-04-15 00:18 64.68452 77.15646 38190 ft 473 kts 234°
2026-04-15 00:19 64.64106 77.04110 38185 ft 473 kts 234°
2026-04-15 00:19 64.59755 76.92604 38195 ft 473 kts 234°
2026-04-15 00:20 64.55394 76.81127 38196 ft 474 kts 233°
2026-04-15 00:20 64.51019 76.69674 38197 ft 474 kts 233°
2026-04-15 00:21 64.46634 76.58256 38198 ft 474 kts 233°
2026-04-15 00:21 64.42246 76.46888 38202 ft 474 kts 233°
2026-04-15 00:22 64.37842 76.35540 38207 ft 474 kts 233°
2026-04-15 00:22 64.33431 76.24229 38207 ft 474 kts 233°
2026-04-15 00:23 64.29015 76.12966 38207 ft 474 kts 233°
2026-04-15 00:23 64.24591 76.01741 38207 ft 473 kts 233°
2026-04-15 00:24 64.20157 75.90550 38212 ft 473 kts 233°
2026-04-15 00:24 64.15724 75.79415 38216 ft 473 kts 233°
2026-04-15 00:25 64.11279 75.68306 38216 ft 473 kts 233°
2026-04-15 00:25 64.06832 75.57251 38218 ft 472 kts 233°
2026-04-15 00:26 64.02372 75.46218 38214 ft 472 kts 233°
2026-04-15 00:26 63.97912 75.35239 38227 ft 472 kts 232°
2026-04-15 00:27 63.93443 75.24289 38217 ft 472 kts 232°
2026-04-15 00:27 63.88959 75.13360 38241 ft 472 kts 232°
2026-04-15 00:28 63.84465 75.02493 38239 ft 473 kts 232°
2026-04-15 00:28 63.79955 74.91656 38239 ft 473 kts 232°
2026-04-15 00:29 63.75468 74.80917 38245 ft 473 kts 232°
2026-04-15 00:29 63.70943 74.70136 38245 ft 473 kts 232°
2026-04-15 00:30 63.66406 74.59378 38248 ft 473 kts 232°
2026-04-15 00:30 63.61861 74.48653 38246 ft 474 kts 232°
2026-04-15 00:31 63.57305 74.37958 38256 ft 474 kts 232°
2026-04-15 00:31 63.52740 74.27294 38255 ft 474 kts 231°
2026-04-15 00:32 63.48172 74.16675 38256 ft 474 kts 231°
2026-04-15 00:32 63.43593 74.06082 38254 ft 474 kts 231°
2026-04-15 00:33 63.39007 73.95526 38258 ft 473 kts 231°
2026-04-15 00:33 63.34417 73.85012 38256 ft 473 kts 231°
2026-04-15 00:34 63.29817 73.74525 38260 ft 473 kts 231°
2026-04-15 00:34 63.25216 73.64089 38262 ft 473 kts 231°
2026-04-15 00:35 63.20610 73.53690 38263 ft 472 kts 231°
2026-04-15 00:35 63.15994 73.43320 38267 ft 472 kts 231°
2026-04-15 00:36 63.11377 73.32997 38268 ft 472 kts 231°
2026-04-15 00:36 63.06754 73.22710 38275 ft 472 kts 231°
2026-04-15 00:37 63.02126 73.12459 38267 ft 472 kts 231°
2026-04-15 00:37 62.97488 73.02237 38275 ft 472 kts 231°
2026-04-15 00:38 62.92845 72.92051 38278 ft 472 kts 230°
2026-04-15 00:38 62.88189 72.81886 38276 ft 472 kts 230°
2026-04-15 00:39 62.83530 72.71763 38279 ft 472 kts 230°
2026-04-15 00:39 62.78888 72.61724 38290 ft 472 kts 230°
2026-04-15 00:40 62.74208 72.51650 38292 ft 473 kts 230°
2026-04-15 00:40 62.69518 72.41601 38290 ft 473 kts 230°
2026-04-15 00:41 62.64822 72.31587 38291 ft 473 kts 230°
2026-04-15 00:41 62.60118 72.21604 38297 ft 473 kts 230°
2026-04-15 00:42 62.55407 72.11649 38299 ft 473 kts 230°
2026-04-15 00:42 62.50686 72.01722 38301 ft 473 kts 229°
2026-04-15 00:43 62.45961 71.91827 38307 ft 473 kts 229°
2026-04-15 00:43 62.41231 71.81967 38305 ft 472 kts 229°
2026-04-15 00:44 62.36500 71.72154 38308 ft 472 kts 229°
2026-04-15 00:44 62.31762 71.62361 38310 ft 472 kts 229°
2026-04-15 00:45 62.27025 71.52609 38322 ft 471 kts 229°
2026-04-15 00:45 62.22284 71.42895 38323 ft 471 kts 229°
2026-04-15 00:46 62.17545 71.33226 38328 ft 471 kts 229°
2026-04-15 00:46 62.12796 71.23581 38331 ft 470 kts 229°
2026-04-15 00:47 62.08047 71.13979 38335 ft 470 kts 229°
2026-04-15 00:47 62.03291 71.04402 38333 ft 470 kts 229°
2026-04-15 00:48 61.98566 70.94938 38340 ft 470 kts 228°
2026-04-15 00:48 61.93790 70.85462 38349 ft 470 kts 228°
2026-04-15 00:49 61.89002 70.76012 38344 ft 470 kts 228°
2026-04-15 00:49 61.84213 70.66594 38345 ft 470 kts 228°
2026-04-15 00:50 61.79413 70.57189 38371 ft 473 kts 227°
2026-04-15 00:50 61.74545 70.47688 38582 ft 479 kts 227°
2026-04-15 00:50 61.72095 70.42928 38834 ft 478 kts 227°
2026-04-15 00:51 61.69656 70.38203 39126 ft 475 kts 227°
2026-04-15 00:51 61.67223 70.33498 39330 ft 474 kts 227°
2026-04-15 00:51 61.64791 70.28803 39494 ft 474 kts 227°
2026-04-15 00:51 61.62357 70.24115 39646 ft 475 kts 227°
2026-04-15 00:52 61.59921 70.19431 39813 ft 474 kts 227°
2026-04-15 00:52 61.57490 70.14769 39975 ft 474 kts 227°
2026-04-15 00:52 61.55051 70.10101 40126 ft 474 kts 227°
2026-04-15 00:52 61.52618 70.05455 40265 ft 473 kts 227°
2026-04-15 00:53 61.50189 70.00827 40341 ft 473 kts 227°
2026-04-15 00:53 61.45295 69.91529 40356 ft 476 kts 227°
2026-04-15 00:54 61.40391 69.82255 40357 ft 476 kts 226°
2026-04-15 00:54 61.35483 69.73009 40360 ft 476 kts 227°
2026-04-15 00:55 61.30583 69.63732 40353 ft 476 kts 227°
2026-04-15 00:55 61.25691 69.54481 40355 ft 476 kts 227°
2026-04-15 00:56 61.20788 69.45259 40362 ft 475 kts 227°
2026-04-15 00:56 61.15913 69.36132 40363 ft 475 kts 226°
2026-04-15 00:57 61.11007 69.26985 40367 ft 475 kts 226°
2026-04-15 00:57 61.06111 69.17832 40364 ft 473 kts 230°
2026-04-15 00:58 61.02243 69.07149 40371 ft 460 kts 247°
2026-04-15 00:58 60.99795 68.95140 40375 ft 454 kts 255°
2026-04-15 00:59 60.97514 68.83034 40372 ft 454 kts 254°
2026-04-15 00:59 60.95177 68.70944 40365 ft 455 kts 253°
2026-04-15 01:00 60.92803 68.58882 40367 ft 455 kts 253°
2026-04-15 01:00 60.90412 68.46816 40368 ft 456 kts 253°
2026-04-15 01:01 60.88011 68.34754 40374 ft 457 kts 253°
2026-04-15 01:01 60.86005 68.24730 40371 ft 457 kts 253°
2026-04-15 01:02 60.83188 68.10629 40380 ft 457 kts 253°
2026-04-15 01:02 60.80771 67.98580 40386 ft 457 kts 253°
2026-04-15 01:03 60.78341 67.86544 40384 ft 458 kts 253°
2026-04-15 01:03 60.75899 67.74519 40385 ft 458 kts 253°
2026-04-15 01:04 60.73861 67.64535 40384 ft 457 kts 252°
2026-04-15 01:04 60.70999 67.50611 40393 ft 457 kts 252°
2026-04-15 01:05 60.68507 67.38666 40399 ft 457 kts 252°
2026-04-15 01:05 60.66001 67.26746 40404 ft 457 kts 252°
2026-04-15 01:06 60.63898 67.16778 40408 ft 457 kts 252°
2026-04-15 01:06 60.61396 67.04976 40410 ft 457 kts 252°
2026-04-15 01:07 60.58870 66.93120 40411 ft 456 kts 252°
2026-04-15 01:07 60.56335 66.81290 40415 ft 456 kts 252°
2026-04-15 01:08 60.53790 66.69487 40415 ft 456 kts 251°
2026-04-15 01:08 60.51234 66.57693 40415 ft 456 kts 251°
2026-04-15 01:09 60.48668 66.45924 40417 ft 456 kts 251°
2026-04-15 01:09 60.46092 66.34170 40417 ft 456 kts 251°
2026-04-15 01:10 60.43505 66.22438 40420 ft 456 kts 251°
2026-04-15 01:10 60.40909 66.10726 40431 ft 456 kts 251°
2026-04-15 01:11 60.38298 65.99012 40425 ft 457 kts 251°
2026-04-15 01:11 60.35679 65.87327 40425 ft 456 kts 251°
2026-04-15 01:12 60.33049 65.75659 40431 ft 456 kts 251°
2026-04-15 01:12 60.30411 65.64022 40434 ft 456 kts 250°
2026-04-15 01:13 60.27765 65.52409 40434 ft 456 kts 250°
2026-04-15 01:13 60.25110 65.40819 40429 ft 455 kts 250°
2026-04-15 01:14 60.22447 65.29257 40431 ft 455 kts 250°
2026-04-15 01:14 60.19777 65.17724 40444 ft 455 kts 250°
2026-04-15 01:15 60.17097 65.06209 40435 ft 455 kts 250°
2026-04-15 01:15 60.14412 64.94724 40449 ft 454 kts 250°
2026-04-15 01:16 60.12230 64.82967 40450 ft 444 kts 264°
2026-04-15 01:16 60.11793 64.70829 40463 ft 433 kts 277°
2026-04-15 01:17 60.12047 64.58773 40460 ft 433 kts 278°
2026-04-15 01:17 60.12375 64.40717 40456 ft 434 kts 277°
2026-04-15 01:18 60.12548 64.28606 40460 ft 435 kts 277°
2026-04-15 01:18 60.12707 64.16490 40464 ft 435 kts 277°
2026-04-15 01:19 60.12858 64.04353 40466 ft 436 kts 276°
2026-04-15 01:19 60.12665 63.92161 40462 ft 443 kts 265°
2026-04-15 01:20 60.10819 63.80239 40480 ft 452 kts 253°
2026-04-15 01:20 60.08377 63.68614 40476 ft 453 kts 252°
2026-04-15 01:21 60.05937 63.56970 40473 ft 453 kts 252°
2026-04-15 01:21 60.03530 63.45312 40471 ft 453 kts 253°
2026-04-15 01:22 60.01127 63.33663 40476 ft 453 kts 252°
2026-04-15 01:22 59.98710 63.22020 40467 ft 453 kts 252°
2026-04-15 01:23 59.96286 63.10408 40469 ft 453 kts 252°
2026-04-15 01:23 59.93811 62.98853 40471 ft 454 kts 250°
2026-04-15 01:24 59.91035 62.87551 40469 ft 454 kts 248°
2026-04-15 01:24 59.88188 62.76423 40472 ft 453 kts 248°
2026-04-15 01:25 59.85340 62.65241 40471 ft 452 kts 248°
2026-04-15 01:25 59.82510 62.54075 40472 ft 452 kts 248°
2026-04-15 01:26 59.79682 62.42933 40472 ft 451 kts 248°
2026-04-15 01:26 59.76853 62.31835 40471 ft 451 kts 248°
2026-04-15 01:27 59.74014 62.20757 40477 ft 451 kts 248°
2026-04-15 01:27 59.71164 62.09690 40476 ft 450 kts 248°
2026-04-15 01:28 59.68305 61.98649 40479 ft 451 kts 248°
2026-04-15 01:28 59.65437 61.87624 40479 ft 451 kts 248°
2026-04-15 01:29 59.62557 61.76609 40483 ft 451 kts 248°
2026-04-15 01:29 59.59668 61.65614 40482 ft 451 kts 247°
2026-04-15 01:30 59.56764 61.54620 40485 ft 452 kts 247°
2026-04-15 01:30 59.53852 61.43643 40481 ft 452 kts 247°
2026-04-15 01:31 59.50925 61.32668 40485 ft 452 kts 247°
2026-04-15 01:31 59.48012 61.21797 40482 ft 452 kts 247°
2026-04-15 01:32 59.45068 61.10863 40482 ft 453 kts 247°
2026-04-15 01:32 59.42112 60.99937 40488 ft 453 kts 247°
2026-04-15 01:33 59.39147 60.89029 40483 ft 453 kts 246°
2026-04-15 01:33 59.36175 60.78150 40485 ft 452 kts 246°
2026-04-15 01:34 59.33197 60.67301 40486 ft 452 kts 246°
2026-04-15 01:34 59.30210 60.56472 40487 ft 452 kts 246°
2026-04-15 01:35 59.27217 60.45672 40486 ft 451 kts 246°
2026-04-15 01:35 59.24215 60.34889 40485 ft 451 kts 246°
2026-04-15 01:36 59.21206 60.24132 40483 ft 451 kts 246°
2026-04-15 01:36 59.18190 60.13401 40487 ft 451 kts 246°
2026-04-15 01:37 59.15166 60.02691 40490 ft 451 kts 246°
2026-04-15 01:37 59.12129 59.91985 40487 ft 451 kts 245°
2026-04-15 01:38 59.09082 59.81296 40486 ft 452 kts 245°
2026-04-15 01:38 59.06027 59.70628 40486 ft 452 kts 245°
2026-04-15 01:39 59.02960 59.59964 40484 ft 453 kts 245°
2026-04-15 01:39 58.99898 59.49372 40491 ft 453 kts 245°
2026-04-15 01:40 58.96810 59.38737 40485 ft 453 kts 245°
2026-04-15 01:40 58.93707 59.28098 40491 ft 454 kts 245°
2026-04-15 01:41 58.90591 59.17465 40478 ft 454 kts 244°
2026-04-15 01:41 58.87466 59.06850 40479 ft 454 kts 244°
2026-04-15 01:42 58.84333 58.96256 40480 ft 454 kts 244°
2026-04-15 01:42 58.81188 58.85668 40476 ft 454 kts 244°
2026-04-15 01:43 58.78038 58.75114 40474 ft 454 kts 244°
2026-04-15 01:43 58.74883 58.64590 40463 ft 453 kts 244°
2026-04-15 01:44 58.71719 58.54084 40467 ft 453 kts 244°
2026-04-15 01:44 58.68553 58.43611 40456 ft 453 kts 243°
2026-04-15 01:45 58.65381 58.33167 40465 ft 452 kts 243°
2026-04-15 01:45 58.62210 58.22757 40459 ft 452 kts 243°
2026-04-15 01:46 58.59037 58.12356 40455 ft 451 kts 243°
2026-04-15 01:46 58.55861 58.01981 40453 ft 451 kts 243°
2026-04-15 01:47 58.52684 57.91649 40452 ft 451 kts 243°
2026-04-15 01:47 58.49492 57.81319 40440 ft 451 kts 243°
2026-04-15 01:48 58.46294 57.71012 40444 ft 451 kts 243°
2026-04-15 01:48 58.43110 57.60794 40438 ft 451 kts 242°
2026-04-15 01:49 58.39874 57.50456 40437 ft 451 kts 242°
2026-04-15 01:49 58.36675 57.40276 40435 ft 451 kts 242°
2026-04-15 01:50 58.33443 57.30035 40426 ft 451 kts 242°
2026-04-15 01:50 58.30201 57.19817 40425 ft 451 kts 242°
2026-04-15 01:51 58.26947 57.09604 40415 ft 452 kts 242°
2026-04-15 01:51 58.23688 56.99415 40410 ft 451 kts 242°
2026-04-15 01:52 58.20423 56.89246 40407 ft 451 kts 242°
2026-04-15 01:52 58.17156 56.79115 40404 ft 450 kts 241°
2026-04-15 01:53 58.13886 56.69017 40403 ft 449 kts 241°
2026-04-15 01:53 58.10612 56.58948 40399 ft 449 kts 241°
2026-04-15 01:54 58.07892 56.50618 40399 ft 448 kts 241°
2026-04-15 01:54 58.04612 56.40608 40393 ft 448 kts 241°
2026-04-15 01:55 58.01329 56.30633 40396 ft 447 kts 241°
2026-04-15 01:55 57.98040 56.20679 40398 ft 447 kts 241°
2026-04-15 01:56 57.94750 56.10757 40397 ft 447 kts 241°
2026-04-15 01:56 57.91402 56.00896 40400 ft 448 kts 237°
2026-04-15 01:57 57.87673 55.91508 40409 ft 449 kts 235°
2026-04-15 01:57 57.83850 55.82233 40397 ft 449 kts 235°
2026-04-15 01:58 57.80045 55.72948 40388 ft 449 kts 235°
2026-04-15 01:58 57.76250 55.63642 40386 ft 449 kts 235°
2026-04-15 01:59 57.72456 55.54349 40377 ft 449 kts 235°
2026-04-15 01:59 57.68656 55.45081 40380 ft 449 kts 235°
2026-04-15 02:00 57.64844 55.35819 40377 ft 449 kts 235°
2026-04-15 02:00 57.61029 55.26587 40371 ft 449 kts 235°
2026-04-15 02:01 57.57209 55.17380 40370 ft 449 kts 235°
2026-04-15 02:01 57.53379 55.08183 40374 ft 449 kts 234°
2026-04-15 02:02 57.49547 54.99016 40376 ft 449 kts 234°
2026-04-15 02:02 57.45736 54.89928 40368 ft 449 kts 234°
2026-04-15 02:03 57.41869 54.80744 40369 ft 449 kts 234°
2026-04-15 02:03 57.38031 54.71634 40376 ft 448 kts 234°
2026-04-15 02:04 57.34216 54.62602 40365 ft 448 kts 234°
2026-04-15 02:04 57.30365 54.53519 40366 ft 448 kts 234°
2026-04-15 02:05 57.26509 54.44456 40380 ft 448 kts 234°
2026-04-15 02:05 57.22646 54.35409 40368 ft 449 kts 234°
2026-04-15 02:06 57.18766 54.26375 40373 ft 449 kts 234°
2026-04-15 02:06 57.14849 54.17407 40369 ft 450 kts 233°
2026-04-15 02:07 57.10916 54.08442 40372 ft 450 kts 233°
2026-04-15 02:07 57.06978 53.99479 40372 ft 450 kts 233°
2026-04-15 02:08 57.03052 53.90506 40363 ft 450 kts 234°
2026-04-15 02:08 56.99158 53.81514 40363 ft 450 kts 234°
2026-04-15 02:09 56.95253 53.72526 40351 ft 451 kts 233°
2026-04-15 02:09 56.91336 53.63562 40363 ft 450 kts 233°
2026-04-15 02:10 56.87421 53.54635 40354 ft 450 kts 233°
2026-04-15 02:10 56.83497 53.45731 40343 ft 450 kts 232°
2026-04-15 02:11 56.79310 53.37234 40353 ft 450 kts 229°
2026-04-15 02:11 56.75019 53.29011 40343 ft 450 kts 229°
2026-04-15 02:12 56.70733 53.20715 40334 ft 450 kts 229°
2026-04-15 02:12 56.66459 53.12394 40339 ft 449 kts 229°
2026-04-15 02:13 56.62186 53.04134 40329 ft 449 kts 229°
2026-04-15 02:13 56.57883 52.95933 40325 ft 448 kts 229°
2026-04-15 02:14 56.53586 52.87768 40319 ft 447 kts 229°
2026-04-15 02:14 56.49300 52.79634 40319 ft 446 kts 229°
2026-04-15 02:15 56.45016 52.71518 40317 ft 445 kts 230°
2026-04-15 02:15 56.41025 52.63007 40312 ft 443 kts 234°
2026-04-15 02:16 56.37168 52.54329 40311 ft 443 kts 233°
2026-04-15 02:16 56.33273 52.45715 40302 ft 443 kts 233°
2026-04-15 02:17 56.29359 52.37166 40304 ft 442 kts 233°
2026-04-15 02:17 56.25431 52.28640 40298 ft 442 kts 233°
2026-04-15 02:18 56.21491 52.20159 40297 ft 442 kts 232°
2026-04-15 02:18 56.17540 52.11682 40291 ft 442 kts 232°
2026-04-15 02:19 56.13616 52.03284 40290 ft 442 kts 232°
2026-04-15 02:19 56.09660 51.94841 40283 ft 442 kts 232°
2026-04-15 02:20 56.05699 51.86418 40278 ft 442 kts 232°
2026-04-15 02:20 56.01322 51.78686 40288 ft 445 kts 220°
2026-04-15 02:21 55.96421 51.71915 40273 ft 445 kts 219°
2026-04-15 02:21 55.91517 51.65169 40266 ft 446 kts 220°
2026-04-15 02:22 55.86628 51.58354 40263 ft 446 kts 220°
2026-04-15 02:23 55.79302 51.48131 40261 ft 447 kts 220°
2026-04-15 02:23 55.74399 51.41338 40253 ft 447 kts 218°
2026-04-15 02:24 55.68966 51.35923 40262 ft 450 kts 206°
2026-04-15 02:24 55.63265 51.31324 40247 ft 450 kts 206°
2026-04-15 02:25 55.57575 51.26691 40235 ft 450 kts 206°
2026-04-15 02:25 55.51901 51.21997 40226 ft 451 kts 206°
2026-04-15 02:26 55.46227 51.17298 40224 ft 451 kts 206°
2026-04-15 02:26 55.40545 51.12615 40221 ft 451 kts 206°
2026-04-15 02:27 55.34863 51.07971 40214 ft 451 kts 206°
2026-04-15 02:27 55.29169 51.03342 40210 ft 451 kts 206°
2026-04-15 02:28 55.23520 50.98766 40210 ft 450 kts 206°
2026-04-15 02:28 55.17826 50.94171 40204 ft 450 kts 206°
2026-04-15 02:29 55.12133 50.89587 40203 ft 450 kts 205°
2026-04-15 02:29 55.06442 50.85017 40197 ft 450 kts 205°
2026-04-15 02:30 55.00745 50.80449 40190 ft 450 kts 205°
2026-04-15 02:30 54.95056 50.75881 40187 ft 451 kts 205°
2026-04-15 02:31 54.89360 50.71321 40186 ft 451 kts 205°
2026-04-15 02:31 54.83663 50.66775 40181 ft 451 kts 205°
2026-04-15 02:32 54.77959 50.62238 40175 ft 451 kts 205°
2026-04-15 02:32 54.72254 50.57713 40178 ft 451 kts 205°
2026-04-15 02:33 54.66552 50.53207 40171 ft 451 kts 205°
2026-04-15 02:33 54.60843 50.48708 40162 ft 451 kts 205°
2026-04-15 02:34 54.55141 50.44229 40156 ft 451 kts 205°
2026-04-15 02:34 54.49431 50.39754 40153 ft 450 kts 204°
2026-04-15 02:35 54.43728 50.35296 40158 ft 450 kts 204°
2026-04-15 02:35 54.38096 50.30764 40137 ft 450 kts 208°
2026-04-15 02:36 54.32611 50.25454 40145 ft 450 kts 210°
2026-04-15 02:36 54.27234 50.20103 40145 ft 450 kts 210°
2026-04-15 02:37 54.21802 50.14792 40133 ft 450 kts 209°
2026-04-15 02:37 54.16351 50.09525 40129 ft 450 kts 209°
2026-04-15 02:38 54.10894 50.04271 40125 ft 451 kts 209°
2026-04-15 02:38 54.05430 49.99022 40122 ft 451 kts 210°
2026-04-15 02:39 54.00509 49.92485 40104 ft 450 kts 228°
2026-04-15 02:39 53.96353 49.84538 40102 ft 450 kts 229°
2026-04-15 02:40 53.92206 49.76568 40102 ft 450 kts 228°
2026-04-15 02:40 53.88014 49.68664 40100 ft 451 kts 228°
2026-04-15 02:41 53.83802 49.60796 40096 ft 451 kts 228°
2026-04-15 02:41 53.79581 49.52930 40092 ft 451 kts 227°
2026-04-15 02:42 53.75348 49.45096 40090 ft 451 kts 227°
2026-04-15 02:42 53.71116 49.37361 40090 ft 451 kts 227°
2026-04-15 02:43 53.66856 49.29598 40080 ft 451 kts 227°
2026-04-15 02:43 53.63290 49.23109 40085 ft 450 kts 227°
2026-04-15 02:44 53.58335 49.14117 40080 ft 450 kts 227°
2026-04-15 02:44 53.54076 49.06413 40079 ft 450 kts 227°
2026-04-15 02:45 53.50504 48.99967 40075 ft 449 kts 226°
2026-04-15 02:45 53.46242 48.92301 40069 ft 449 kts 226°
2026-04-15 02:46 53.41296 48.83408 40068 ft 449 kts 226°
2026-04-15 02:46 53.37729 48.77005 40070 ft 448 kts 226°
2026-04-15 02:47 53.33496 48.69427 40062 ft 448 kts 226°
2026-04-15 02:47 53.29235 48.61824 40060 ft 448 kts 226°
2026-04-15 02:48 53.24975 48.54249 40065 ft 448 kts 226°
2026-04-15 02:48 53.20709 48.46685 40063 ft 447 kts 226°
2026-04-15 02:49 53.16443 48.39140 40064 ft 447 kts 226°
2026-04-15 02:49 53.12215 48.31545 40049 ft 447 kts 231°
2026-04-15 02:50 53.09091 48.22622 40054 ft 448 kts 248°
2026-04-15 02:50 53.06834 48.12981 40057 ft 448 kts 249°
2026-04-15 02:51 53.04582 48.03331 40053 ft 448 kts 248°
2026-04-15 02:51 53.02280 47.93712 40054 ft 448 kts 248°
2026-04-15 02:52 52.99956 47.84124 40057 ft 448 kts 248°
2026-04-15 02:52 52.97623 47.74550 40054 ft 448 kts 248°
2026-04-15 02:53 52.95284 47.64980 40055 ft 448 kts 248°
2026-04-15 02:53 52.92955 47.55486 40052 ft 448 kts 247°
2026-04-15 02:54 52.90580 47.45882 40052 ft 448 kts 247°
2026-04-15 02:54 52.88214 47.36416 40058 ft 448 kts 247°
2026-04-15 02:55 52.85826 47.26886 40055 ft 448 kts 247°
2026-04-15 02:55 52.83404 47.17315 40057 ft 448 kts 243°
2026-04-15 02:55 52.81799 47.13003 40054 ft 446 kts 229°
2026-04-15 02:56 52.79646 47.09340 40057 ft 444 kts 218°
2026-04-15 02:56 52.77056 47.06496 40059 ft 441 kts 207°
2026-04-15 02:56 52.74371 47.04180 40066 ft 441 kts 206°
2026-04-15 02:57 52.68901 46.99579 40061 ft 442 kts 206°
2026-04-15 02:57 52.63449 46.94903 40059 ft 442 kts 206°
2026-04-15 02:58 52.58014 46.90183 40059 ft 442 kts 206°
2026-04-15 02:58 52.52580 46.85471 40057 ft 441 kts 206°
2026-04-15 02:59 52.47142 46.80786 40054 ft 441 kts 206°
2026-04-15 02:59 52.41710 46.76141 40053 ft 440 kts 206°
2026-04-15 03:00 52.36279 46.71507 40054 ft 440 kts 206°
2026-04-15 03:00 52.30855 46.66887 40053 ft 439 kts 206°
2026-04-15 03:01 52.25438 46.62285 40055 ft 439 kts 206°
2026-04-15 03:01 52.20029 46.57702 40053 ft 438 kts 206°
2026-04-15 03:02 52.14625 46.53133 40050 ft 438 kts 206°
2026-04-15 03:02 52.09218 46.48561 40052 ft 437 kts 206°
2026-04-15 03:03 52.03827 46.44013 40059 ft 437 kts 206°
2026-04-15 03:03 51.98425 46.39478 40057 ft 437 kts 205°
2026-04-15 03:04 51.93030 46.34980 40066 ft 436 kts 205°
2026-04-15 03:04 51.87669 46.30521 40065 ft 436 kts 205°
2026-04-15 03:05 51.82281 46.26047 40074 ft 435 kts 205°
2026-04-15 03:05 51.76892 46.21582 40082 ft 435 kts 205°
2026-04-15 03:06 51.71501 46.17121 40074 ft 435 kts 205°
2026-04-15 03:06 51.66115 46.12675 40075 ft 435 kts 205°
2026-04-15 03:07 51.60727 46.08238 40081 ft 435 kts 205°
2026-04-15 03:07 51.55333 46.03821 40072 ft 435 kts 204°
2026-04-15 03:08 51.49885 45.99627 40077 ft 434 kts 203°
2026-04-15 03:08 51.44418 45.95513 40070 ft 434 kts 203°
2026-04-15 03:09 51.38954 45.91384 40065 ft 434 kts 203°
2026-04-15 03:09 51.33502 45.87255 40068 ft 433 kts 203°
2026-04-15 03:10 51.28055 45.83136 40079 ft 433 kts 203°
2026-04-15 03:10 51.22605 45.79025 40069 ft 433 kts 203°
2026-04-15 03:11 51.17156 45.74927 40077 ft 433 kts 203°
2026-04-15 03:11 51.11704 45.70835 40073 ft 433 kts 202°
2026-04-15 03:12 51.06242 45.66748 40075 ft 433 kts 202°
2026-04-15 03:12 51.00998 45.62010 40075 ft 437 kts 215°
2026-04-15 03:13 50.96239 45.55988 40072 ft 438 kts 216°
2026-04-15 03:13 50.91481 45.49981 40078 ft 437 kts 215°
2026-04-15 03:14 50.86682 45.44052 40077 ft 437 kts 215°
2026-04-15 03:14 50.81838 45.38337 40079 ft 437 kts 213°
2026-04-15 03:15 50.76921 45.32690 40084 ft 437 kts 213°
2026-04-15 03:15 50.72009 45.27047 40079 ft 437 kts 213°
2026-04-15 03:16 50.67094 45.21390 40080 ft 437 kts 213°
2026-04-15 03:16 50.62173 45.15728 40077 ft 438 kts 213°
2026-04-15 03:17 50.57256 45.10084 40083 ft 437 kts 213°
2026-04-15 03:17 50.52336 45.04452 40085 ft 437 kts 213°
2026-04-15 03:18 50.47414 44.98833 40083 ft 437 kts 213°
2026-04-15 03:18 50.42493 44.93230 40085 ft 437 kts 213°
2026-04-15 03:19 50.37570 44.87640 40087 ft 437 kts 213°
2026-04-15 03:19 50.32673 44.82094 40087 ft 437 kts 213°
2026-04-15 03:20 50.27742 44.76524 40083 ft 437 kts 213°
2026-04-15 03:20 50.22812 44.70969 40082 ft 437 kts 213°
2026-04-15 03:21 50.17878 44.65425 40083 ft 437 kts 213°
2026-04-15 03:21 50.10466 44.57123 40089 ft 437 kts 213°
2026-04-15 03:22 50.07161 44.53430 40087 ft 437 kts 213°